Starlink 30880

operational
NORAD ID: 58232 Int'l Des: 2023-171 Owner: SPXS Country: US Constellation: starlink
LEOCIRCULAR

Starlink 30880について

説明を読み込み中...

リアルタイム位置

3D地球を読み込み中...

次回通過

高度履歴

Altitude vs Time

uPlot chart will show altitude changes over time

軌道要素

1 58232U 23171C 25258.12015388 .00001369 00000-0 11639-3 0 9996
2 58232 43.0049 160.1371 0001977 266.7589 93.3027 15.02548882103313
Epoch: Sep 15, 2025 • Age: 25 hours

現在のステータス

高度 570.3 km
速度 7.58 km/s
衛星直下点 -41.25°S, 10.77°W
打ち上げ日 Nov 8, 2023
運用期間 1.8 years
タイプ internet

技術仕様

分類 Payload
質量 730.00 kg
乾燥質量 700.00 kg
総質量 730.00 kg
長さ 0.30 m
直径 4.10 m
スパン 29.00 m
形状 Box + pan
製造者 SPXS
バスタイプ Starlink V2M
フェーズステータス In Orbit
所有者/国 SPXS/US

大規模コンステレーション

Loading constellations...